EW7528 Weather Reports


time (UTC)temp
C
wind
direction
speed
KPH
gust
KPH
rain 1hr
cm
rain 24hr
cm
rain mn
cm
humidity
%
barometer
mb
20260503053643 14 104 0.0 3.2 0.00 0.84 0.08 94 1009.7
20260503053629 14 146 0.0 1.6 0.00 0.84 0.08 94 1009.7
20260503052640 14 146 0.0 1.6 0.00 0.84 0.08 94 1009.7
20260503052139 14 130 0.0 0.0 0.00 0.84 0.08 94 1009.8
20260503051635 14 130 0.0 1.6 0.00 0.84 0.08 94 1009.8
20260503051133 13 130 0.0 1.6 0.00 0.84 0.08 94 1009.8
20260503050854 13 130 0.0 0.0 0.00 0.84 0.08 94 1009.8
20260503050353 13 130 0.0 0.0 0.00 0.84 0.08 94 1009.9
20260503045619 13 130 0.0 0.0 0.00 0.84 0.08 94 1010.0
20260503045113 13 130 0.0 0.0 0.00 0.84 0.08 94 1010.0
20260503044607 13 130 0.0 0.0 0.00 0.84 0.08 94 1010.1
20260503044101 13 130 0.0 0.0 0.00 0.84 0.08 94 1010.1
20260503043555 13 130 0.0 0.0 0.00 0.84 0.08 94 1010.1
20260503043049 13 130 0.0 0.0 0.00 0.84 0.08 94 1010.1
20260503042806 13 130 0.0 0.0 0.00 0.84 0.08 94 1010.1
20260503042038 13 130 0.0 1.6 0.00 0.84 0.08 94 1010.2
20260503041532 13 130 0.0 1.6 0.00 0.84 0.08 94 1010.0
20260503041249 13 130 0.0 1.6 0.00 0.84 0.08 94 1010.2
20260503040519 13 130 0.0 1.6 0.00 0.84 0.08 94 1010.1
20260503040013 14 130 0.0 1.6 0.00 0.84 0.08 94 1010.0
20260503035507 14 130 0.0 0.0 0.00 0.84 0.08 94 1010.0
20260503035001 14 130 0.0 1.6 0.00 0.84 0.08 94 1010.0
20260503034455 14 130 0.0 1.6 0.00 0.84 0.08 94 1010.0
20260503033949 14 130 0.0 1.6 0.00 0.84 0.08 94 1009.9
20260503033931 14 130 0.0 1.6 0.00 0.84 0.08 94 1010.0
20260503032937 14 130 0.0 1.6 0.00 0.84 0.08 94 1010.0
20260503032432 14 130 0.0 1.6 0.00 0.84 0.08 94 1010.1
20260503031926 14 130 0.0 3.2 0.00 0.84 0.08 94 1010.2
20260503031421 14 130 0.0 3.2 0.00 0.84 0.08 94 1010.2
20260503031140 14 130 0.0 4.8 0.00 0.84 0.08 94 1010.1
20260503030409 14 130 0.0 4.8 0.00 0.84 0.08 94 1010.0
20260503025902 14 180 0.0 3.2 0.00 0.84 0.08 94 1010.2
20260503025840 14 198 0.0 0.0 0.00 0.84 0.08 94 1010.6
20260503024851 14 198 0.0 0.0 0.00 0.84 0.08 94 1010.8
20260503024607 14 198 0.0 1.6 0.00 0.84 0.08 94 1010.8
20260503023836 14 198 0.0 1.6 0.00 0.84 0.08 94 1010.9
20260503023551 14 198 0.0 1.6 0.00 0.84 0.08 94 1011.0
20260503022825 14 198 1.6 4.8 0.00 0.84 0.08 94 1011.2
20260503022319 14 205 1.6 4.8 0.00 0.84 0.08 94 1011.5
20260503022033 14 202 0.0 4.8 0.00 0.84 0.08 93 1011.5
20260503021309 14 164 0.0 0.0 0.00 0.84 0.08 93 1011.3
20260503021026 14 164 0.0 0.0 0.00 0.84 0.08 93 1011.4
20260503020256 14 164 0.0 0.0 0.00 0.84 0.08 93 1011.5
20260503015749 14 164 0.0 0.0 0.00 0.84 0.08 93 1011.5
20260503015243 14 164 0.0 1.6 0.00 0.84 0.08 93 1011.6
20260503014737 14 164 0.0 1.6 0.00 0.84 0.08 93 1011.5
20260503014500 14 164 0.0 3.2 0.00 0.84 0.08 93 1011.6
20260503013725 14 164 0.0 6.4 0.00 0.84 0.08 93 1011.4
20260503013219 14 163 0.0 6.4 0.00 0.84 0.08 93 1011.5
20260503012713 14 164 0.0 3.2 0.00 0.84 0.08 93 1011.5
20260503012207 14 164 0.0 3.2 0.00 0.84 0.08 93 1011.4
20260503011701 14 161 0.0 3.2 0.00 0.84 0.08 93 1011.4
20260503011418 14 161 1.6 6.4 0.00 0.84 0.08 93 1011.2
20260503010649 14 160 1.6 6.4 0.00 0.84 0.08 93 1011.3
20260503010414 14 148 1.6 6.4 0.00 0.84 0.08 93 1011.3
20260503005636 14 153 0.0 4.8 0.00 0.84 0.08 93 1011.2
20260503005131 14 142 0.0 3.2 0.00 0.84 0.08 93 1011.3
20260503004627 14 141 0.0 3.2 0.00 0.84 0.08 93 1011.4
20260503004127 14 111 0.0 3.2 0.00 0.84 0.08 93 1011.4
20260503003627 14 109 0.0 3.2 0.00 0.84 0.08 93 1011.4
20260503003125 14 76 0.0 1.6 0.00 0.84 0.08 93 1011.5
20260503002625 14 76 0.0 0.0 0.00 0.84 0.08 93 1011.5
20260503002123 14 76 0.0 1.6 0.00 0.84 0.08 93 1011.4
20260503001620 14 76 0.0 1.6 0.00 0.84 0.08 93 1011.5
20260503001121 14 76 0.0 0.0 0.00 0.84 0.08 93 1011.5
20260503000621 14 76 0.0 3.2 0.00 0.84 0.08 93 1011.5
20260503000121 14 76 0.0 4.8 0.00 0.84 0.08 93 1011.6
20260502235846 14 93 0.0 4.8 0.00 0.84 0.08 92 1011.5
20260502235121 15 44 1.6 8.0 0.00 0.84 0.08 92 1011.6
20260502234843 15 55 0.0 8.0 0.00 0.84 0.08 92 1011.7
20260502234121 15 83 0.0 1.6 0.00 0.84 0.08 92 1011.7
20260502233621 15 80 0.0 4.8 0.03 0.84 0.08 92 1011.9
20260502233121 15 53 0.0 4.8 0.05 0.84 0.08 92 1011.8
20260502232840 15 67 0.0 3.2 0.08 0.84 0.08 92 1011.9
20260502232121 15 66 0.0 3.2 0.08 0.84 0.08 92 1011.8
20260502231621 15 68 0.0 3.2 0.08 0.84 0.08 92 1011.8
20260502231121 15 63 0.0 4.8 0.08 0.84 0.08 92 1011.9
20260502230618 15 63 0.0 6.4 0.08 0.84 0.08 92 1012.0
20260502230112 15 44 0.0 6.4 0.08 0.84 0.08 92 1012.1
20260502225835 15 90 0.0 6.4 0.08 0.84 0.08 92 1012.2
20260502225100 15 63 0.0 3.2 0.08 0.84 0.08 92 1012.1
20260502224555 15 59 0.0 4.8 0.08 0.84 0.08 92 1012.0
20260502224048 15 82 0.0 4.8 0.08 0.84 0.08 91 1012.0
20260502223542 15 156 0.0 3.2 0.05 0.81 0.05 91 1012.1
20260502223036 15 156 0.0 3.2 0.03 0.79 0.03 91 1012.2
20260502222529 15 156 0.0 3.2 0.00 0.76 0.00 91 1012.4
20260502222022 15 109 0.0 1.6 0.00 0.76 0.00 91 1012.3
20260502221954 15 111 0.0 1.6 0.00 0.76 0.00 91 1012.3
20260502221009 15 107 0.0 4.8 0.00 0.76 0.00 91 1012.2
20260502220501 15 108 0.0 4.8 0.00 0.76 0.00 90 1012.3
20260502220000 15 65 0.0 1.6 0.03 0.76 0.76 91 1012.3
20260502215452 15 57 0.0 3.2 0.05 0.76 0.76 90 1012.2
20260502214947 15 57 0.0 3.2 0.13 0.76 0.76 90 1012.3
20260502214440 15 89 0.0 3.2 0.18 0.76 0.76 90 1012.3
20260502213934 15 88 0.0 3.2 0.23 0.76 0.76 90 1012.3
20260502213428 15 78 0.0 3.2 0.30 0.76 0.76 90 1012.4
20260502212922 15 77 0.0 3.2 0.38 0.76 0.76 90 1012.3
20260502212422 15 82 0.0 3.2 0.41 0.76 0.76 89 1012.3
20260502211921 15 57 0.0 3.2 0.53 0.76 0.76 89 1012.3
20260502211421 15 38 0.0 3.2 0.64 0.76 0.76 89 1012.4
20260502210920 15 28 1.6 4.8 0.74 0.76 0.76 89 1012.5
20260502210420 15 28 1.6 9.7 0.74 0.76 0.76 88 1012.7
20260502205918 15 39 1.6 9.7 0.71 0.74 0.74 88 1012.6
20260502205419 15 55 1.6 6.4 0.69 0.69 0.71 87 1012.9
20260502204919 16 61 3.2 6.4 0.64 0.64 0.66 87 1013.4
20260502204643 16 65 1.6 6.4 0.56 0.56 0.58 86 1013.9
20260502203918 16 94 1.6 4.8 0.53 0.53 0.53 86 1014.5
20260502203418 16 213 4.8 8.0 0.46 0.46 0.46 85 1014.5
20260502202916 16 225 6.4 14.5 0.38 0.38 0.41 84 1014.5
20260502202632 16 228 12.9 29.0 0.36 0.36 0.36 83 1014.5
20260502202137 16 249 17.7 29.0 0.23 0.23 0.25 82 1014.3
20260502201414 17 259 19.3 33.8 0.13 0.13 0.15 79 1014.2
20260502201352 18 241 11.3 33.8 0.03 0.03 0.03 75 1014.0
20260502200855 18 240 3.2 30.6 0.03 0.03 0.03 71 1013.9
20260502200401 18 350 3.2 11.3 0.03 0.03 0.03 68 1012.8
20260502195633 19 344 3.2 9.7 0.00 0.00 0.00 66 1012.9
20260502195139 19 350 3.2 9.7 0.00 0.00 0.00 63 1012.9
20260502194408 19 5 4.8 11.3 0.00 0.00 0.00 63 1012.8
20260502193901 19 14 3.2 11.3 0.00 0.00 0.00 63 1012.8
20260502193357 20 346 1.6 8.0 0.00 0.00 0.00 64 1012.8
20260502193110 20 20 1.6 8.0 0.00 0.00 0.00 63 1012.9
20260502192607 20 25 1.6 6.4 0.00 0.00 0.00 63 1012.9
20260502191837 20 0 1.6 9.7 0.00 0.00 0.00 63 1013.0
20260502191331 20 54 3.2 9.7 0.00 0.00 0.00 63 1013.0
20260502190825 20 66 3.2 8.0 0.00 0.00 0.00 62 1012.9
20260502190319 20 355 3.2 8.0 0.00 0.00 0.00 62 1012.9
20260502185815 20 11 3.2 9.7 0.00 0.00 0.00 62 1012.9
20260502185519 21 5 1.6 9.7 0.00 0.00 0.00 59 1012.8
20260502185358 21 84 1.6 9.7 0.00 0.00 0.00 60 1012.9
20260502184255 21 28 1.6 6.4 0.00 0.00 0.00 58 1013.0
20260502183749 21 5 0.0 6.4 0.00 0.00 0.00 58 1013.0
20260502183243 21 11 0.0 6.4 0.00 0.00 0.00 57 1013.0
20260502183214 21 36 1.6 6.4 0.00 0.00 0.00 57 1013.0
20260502182232 21 25 3.2 6.4 0.00 0.00 0.00 56 1012.9
20260502181725 21 16 3.2 12.9 0.00 0.00 0.00 56 1013.0
20260502181219 21 355 3.2 12.9 0.00 0.00 0.00 55 1012.9
20260502180932 21 5 3.2 8.0 0.00 0.00 0.00 56 1012.9
20260502180206 21 19 3.2 6.4 0.00 0.00 0.00 57 1012.9
20260502164031 22 340 3.2 12.9 0.00 0.00 0.00 61 1013.6
20260502163525 22 355 3.2 12.9 0.00 0.00 0.00 61 1013.7
20260502163019 22 337 3.2 12.9 0.00 0.00 0.00 61 1013.8
20260502162512 22 340 3.2 12.9 0.00 0.00 0.00 61 1013.9
20260502162014 22 9 1.6 9.7 0.00 0.00 0.00 63 1014.0
20260502161514 22 349 3.2 12.9 0.00 0.00 0.00 63 1014.0
20260502161013 22 0 4.8 14.5 0.00 0.00 0.00 63 1014.1
20260502160732 22 347 3.2 14.5 0.00 0.00 0.00 61 1014.0
20260502152235 22 355 6.4 19.3 0.00 0.00 0.00 64 1014.5
20260502151507 22 0 4.8 19.3 0.00 0.00 0.00 62 1014.6
20260502151459 22 351 3.2 14.5 0.00 0.00 0.00 63 1014.6
20260502150505 22 346 1.6 14.5 0.00 0.00 0.00 64 1014.7
20260502150228 22 11 1.6 14.5 0.00 0.00 0.00 63 1014.7
20260502130455 22 240 11.3 19.3 0.00 0.00 0.00 65 1016.3
20260502123451 21 241 9.7 19.3 0.00 0.00 0.00 69 1016.6
20260502122951 21 263 9.7 20.9 0.00 0.00 0.00 70 1016.6
20260502122451 21 243 9.7 20.9 0.00 0.00 0.00 70 1016.7
20260502122213 21 241 8.0 16.1 0.00 0.00 0.00 70 1016.7
20260502121449 21 219 8.0 16.1 0.00 0.00 0.00 70 1016.8
20260502120948 21 234 8.0 17.7 0.00 0.00 0.00 71 1016.7
20260502120449 20 264 9.7 17.7 0.00 0.00 0.00 70 1016.9
20260502115446 21 263 11.3 17.7 0.00 0.00 0.00 71 1017.0
20260502114940 21 238 11.3 19.3 0.00 0.00 0.00 71 1017.0
20260502114433 21 234 9.7 19.3 0.00 0.00 0.00 72 1017.1
20260502113928 20 228 8.0 19.3 0.00 0.00 0.00 73 1017.1
20260502113422 20 205 4.8 16.1 0.00 0.00 0.00 73 1017.3
20260502113405 20 259 8.0 19.3 0.00 0.00 0.00 73 1017.3
20260502112410 20 238 8.0 19.3 0.00 0.00 0.00 73 1017.3
20260502111904 20 236 3.2 14.5 0.00 0.00 0.00 72 1017.4
20260502111359 20 273 4.8 17.7 0.00 0.00 0.00 75 1017.4
20260502110853 20 276 9.7 20.9 0.00 0.00 0.00 73 1017.5
20260502110606 20 253 11.3 20.9 0.00 0.00 0.00 73 1017.5
20260502105840 20 215 11.3 20.9 0.00 0.00 0.00 73 1017.4
20260502105334 20 246 11.3 20.9 0.00 0.00 0.00 72 1017.4
20260502105050 20 238 9.7 19.3 0.00 0.00 0.00 73 1017.5
20260502104322 20 224 9.7 19.3 0.00 0.00 0.00 74 1017.5
20260502103816 20 244 11.3 19.3 0.00 0.00 0.00 74 1017.6
20260502103752 20 205 9.7 27.4 0.00 0.00 0.00 73 1017.6
20260502102804 20 196 9.7 27.4 0.00 0.00 0.00 73 1017.7
20260502102258 20 299 11.3 20.9 0.00 0.00 0.00 72 1017.6
20260502101752 20 236 12.9 20.9 0.00 0.00 0.00 75 1017.8
20260502101246 20 267 14.5 22.5 0.00 0.00 0.00 73 1017.7
20260502100742 20 239 14.5 22.5 0.00 0.00 0.00 72 1017.8
20260502100500 20 232 14.5 22.5 0.00 0.00 0.00 73 1017.7
20260502091156 20 211 11.3 20.9 0.00 0.00 0.00 77 1017.9
20260502090656 19 230 12.9 20.9 0.00 0.00 0.00 77 1018.0
20260502090643 19 223 11.3 19.3 0.00 0.00 0.00 77 1018.1
20260502071148 14 199 1.6 4.8 0.00 0.00 0.00 79 1017.9
20260502070648 13 199 0.0 3.2 0.00 0.00 0.00 79 1017.9
20260502070147 13 200 0.0 1.6 0.00 0.00 0.00 78 1017.9
20260502065648 13 200 0.0 3.2 0.00 0.00 0.00 78 1017.9
20260502065148 13 200 0.0 3.2 0.00 0.00 0.00 78 1017.8
20260502064648 13 200 0.0 3.2 0.00 0.00 0.00 78 1017.7
20260502064150 13 200 0.0 1.6 0.00 0.00 0.00 79 1017.7
20260502063646 13 200 0.0 1.6 0.00 0.00 0.00 78 1017.7
20260502063145 13 200 0.0 1.6 0.00 0.00 0.00 79 1017.6
20260502062640 13 200 0.0 3.2 0.00 0.00 0.00 78 1017.7
20260502062132 13 200 0.0 3.2 0.00 0.00 0.00 77 1017.7
20260502061843 13 200 1.6 3.2 0.00 0.00 0.00 76 1017.8
20260502061121 13 200 0.0 3.2 0.00 0.00 0.00 76 1017.8
20260502060613 13 202 0.0 0.0 0.00 0.00 0.00 75 1017.8
20260502060328 13 202 0.0 1.6 0.00 0.00 0.00 75 1017.8
20260502055601 13 202 1.6 3.2 0.00 0.00 0.00 75 1017.8
20260502055055 13 202 0.0 3.2 0.00 0.00 0.00 74 1018.0
20260502055030 12 202 0.0 1.6 0.00 0.00 0.00 74 1018.0
20260502054309 12 202 0.0 1.6 0.00 0.00 0.00 75 1018.0